Location: ?
(35.4064°N, 139.3593°E)
Time: 18:56:25
(UTC+00:00)

S3M - Pass Details

Date: 18 April 2024
Orbit: 949 x 1003 km, 83.0° (Epoch: 27 May)

Event Time Altitude Azimuth Distance (km) Brightness Sun altitude
Rises 18:56:49 0° 349° (NNW) 3,648 7.2 -13.9°
Reaches altitude 10° 18:59:20 10° 346° (NNW) 2,705 6.5 -13.5°
Maximum altitude 19:05:24 60° 268° (W) 1,104 4.0 -12.3°
Drops below altitude 10° 19:11:32 10° 190° (S) 2,726 6.0 -11.2°
Sets 19:14:05 0° 186° (S) 3,678 6.7 -10.7°
